Weather in Colombo

Sri Lanka     6°56′15″N   79°51′24″E
temp.,
°C
wind,
m/s
gust,
m/s
humid.,
%
clouds,
%
prec.,
mm/h
press.,
hPa
HPBL,
m
17 may, tue
tue1723:30+28wsw111383100 8.0 1008976
02:30+28sw111481100 2.5 10071178
05:30+28sw11147969 5.1 10071137
08:30+28sw11148015 3.9 10091124
11:30+28ssw111381100 5.0 10081114
14:30+28sw10138271 1.5 10061016
17:30+28ssw11148257 2.1 10061125
20:30+28sw111383100 2.0 1008984
18 may, wed
wed1823:30+28sw111383100 8.4 1008977
02:30+27sw101284100 4.8 1006877
05:30+28sw11128278 9.7 1007925
08:30+28sw11138297 1.9 10091007
11:30+28sw11138389 2.8 1009920
14:30+28sw101282100 1.6 1007948
17:30+28sw101281100 3.8 1007935
20:30+28sw101281100 1.9 1010951
19 may, thu
thu1923:30+28sw10128291 3.4 10101029
02:30+28sw111383100 7.1 1008903
05:30+28sw121382100 12.9 1008997
08:30+28sw101281100 4.5 1011864
11:30+28sw101281100 11.5 1011846
14:30+27sw101285100 5.5 1008866
17:30+27sw101281100 7.6 1009841
20:30+28sw101278100 1.6 1011973
20 may, fri
fri2023:30+28sw91180100 4.8 1012945
02:30+27sw91080100 3.4 1009941
05:30+28sw10117982 4.0 1010930
08:30+28ssw8107882 0.1 10111006
11:30+28sw8108158 2.9 1010733
14:30+28sw8107966 1.7 1008981
17:30+28sw81080100 3.3 1008938
20:30+28sw7983100 4.7 1011710
21 may, sat
sat2123:30+28sw7982100 11.7 1011686
02:30+28sw91081100 4.3 1008806
05:30+28sw91080100 6.7 1009891
08:30+28sw91080100 0.3 1011976
11:30+28sw8107978 1.0 1010829
14:30+28sw81080100 0.6 1008937
17:30+28wsw8108086 0.9 1008962
20:30+28wsw8108197 1.4 1010902